Pittsburg, KS

2:41 PM CDT on July 25, 2017 (GMT -0500)
Atkinson Municipal

Weather History for KPTS - May, 2013

Change the Weather History Date:

Tuesday, May 7, 2013

  Actual Average (KJLN) Record (KJLN)
Temperature  
Mean Temperature 60 °F -  
Max Temperature 76 °F 75 °F 88 °F (1962)
Min Temperature 43 °F 53 °F 36 °F (1976)
Degree Days  
Heating Degree Days 6    
Growing Degree Days 10 (Base 50)    
Moisture  
Dew Point 55 °F    
Average Humidity 64    
Maximum Humidity 100    
Minimum Humidity 38    
Precipitation  
Precipitation 0.00 in - - ()
Sea Level Pressure  
Sea Level Pressure 30.04 in    
Wind  
Wind Speed 1 mph (South)    
Max Wind Speed 7 mph    
Max Gust Speed -    
Visibility 7 miles    
Events      
Averages and records for this station are not official NWS values.
T = Trace of Precipitation, MM = Missing Value Source: NWS Daily Summary

Daily Weather History Graph

Daily Weather History Graph

Search for Another Location

Airport or City:

Trip Planner

Search our weather history database for the weather conditions in past years. The results will help you decide how hot, cold, wet, or windy it might be!

Date:

Astronomy

May. 07, 2013 Rise Set
Actual Time 6:17 AM CDT 8:14 PM CDT
Civil Twilight 5:48 AM CDT 8:43 PM CDT
Nautical Twilight 5:13 AM CDT 9:17 PM CDT
Astronomical Twilight 4:36 AM CDT 9:55 PM CDT
Moon 4:49 AM CDT (5/7) 6:16 PM CDT (5/7)
Length of Visible Light 14h 54m
Length of Day
13h 57m
Waning Crescent, 5% of the Moon is Illuminated
May 7
Waning Crescent
May 9
New
May 17
First Quarter
May 24
Full
May 31
Last Quarter

Hourly Weather History & Observations

Time (CDT) Temp. Dew Point Humidity Pressure Visibility Wind Dir Wind Speed Gust Speed Precip Events Conditions
12:15 AM 50.9 °F - N/A% 30.08 in 5.0 mi Calm Calm - N/A   Clear
12:35 AM 50.9 °F - N/A% 30.08 in 4.0 mi Calm Calm - N/A   Clear
12:55 AM 49.8 °F - N/A% 30.08 in 3.0 mi Calm Calm - N/A   Unknown
1:15 AM 48.2 °F - N/A% 30.07 in 7.0 mi Calm Calm - N/A   Clear
1:35 AM 48.2 °F - N/A% 30.07 in 0.8 mi Calm Calm - N/A   Unknown
1:55 AM 48.0 °F - N/A% 30.06 in 3.0 mi Calm Calm - N/A   Clear
2:15 AM 48.7 °F - N/A% 30.05 in 0.5 mi Calm Calm - N/A   Mostly Cloudy
2:35 AM 46.6 °F - N/A% 30.04 in 0.8 mi Calm Calm - N/A   Overcast
2:55 AM 45.7 °F - N/A% 30.04 in 0.2 mi Calm Calm - N/A   Overcast
3:15 AM 46.0 °F - N/A% 30.04 in 0.2 mi Calm Calm - N/A   Overcast
3:35 AM 45.1 °F - N/A% 30.04 in 0.8 mi Calm Calm - N/A   Overcast
3:55 AM 44.8 °F - N/A% 30.04 in 0.8 mi Calm Calm - N/A   Overcast
4:15 AM 44.8 °F - N/A% 30.04 in 0.2 mi Calm Calm - N/A   Overcast
4:35 AM 44.1 °F - N/A% 30.04 in 0.2 mi Calm Calm - N/A   Overcast
4:55 AM 44.1 °F - N/A% 30.04 in 0.5 mi Calm Calm - N/A   Overcast
5:15 AM 44.1 °F - N/A% 30.04 in 0.2 mi Calm Calm - N/A   Overcast
5:35 AM 43.7 °F - N/A% 30.05 in 0.8 mi Calm Calm - N/A   Overcast
5:55 AM 43.7 °F - N/A% 30.05 in 1.0 mi Calm Calm - N/A   Overcast
6:15 AM 43.5 °F - N/A% 30.06 in 0.2 mi Calm Calm - N/A   Overcast
6:35 AM 43.5 °F - N/A% 30.06 in 0.2 mi Calm Calm - N/A   Overcast
6:55 AM 43.9 °F - N/A% 30.07 in 1.2 mi Calm Calm - N/A   Overcast
7:15 AM 44.8 °F - N/A% 30.08 in 0.5 mi Calm Calm - N/A   Overcast
7:35 AM 48.2 °F - N/A% 30.08 in 0.8 mi Calm Calm - N/A   Overcast
7:55 AM 50.9 °F - N/A% 30.09 in 1.5 mi Calm Calm - N/A   Overcast
8:15 AM 52.5 °F - N/A% 30.08 in 3.0 mi Calm Calm - N/A   Unknown
8:35 AM 55.4 °F - N/A% 30.09 in 4.0 mi Calm Calm - N/A   Clear
8:55 AM 55.8 °F - N/A% 30.09 in 5.0 mi Calm Calm - N/A   Clear
9:15 AM 57.0 °F - N/A% 30.09 in 7.0 mi Calm Calm - N/A   Clear
9:35 AM 59.2 °F - N/A% 30.09 in 10.0 mi Calm Calm - N/A   Clear
9:55 AM 61.2 °F - N/A% 30.09 in 10.0 mi Calm Calm - N/A   Clear
10:15 AM 63.0 °F 62.2 °F 97% 30.09 in 10.0 mi Calm Calm - N/A   Clear
10:35 AM 65.1 °F 61.0 °F 86% 30.09 in 10.0 mi NE 3.5 mph - N/A   Clear
10:55 AM 67.5 °F 58.6 °F 73% 30.09 in 10.0 mi Calm Calm - N/A   Clear
11:15 AM 69.1 °F 56.5 °F 64% 30.10 in 10.0 mi ESE 3.5 mph - N/A   Clear
11:35 AM 70.5 °F 56.3 °F 61% 30.09 in 10.0 mi South 3.5 mph - N/A   Clear
11:55 AM 70.9 °F 55.4 °F 58% 30.09 in 10.0 mi South 3.5 mph - N/A   Clear
12:15 PM 70.9 °F 55.2 °F 58% 30.09 in 10.0 mi SE 3.5 mph - N/A   Clear
12:35 PM 70.9 °F 55.2 °F 58% 30.09 in 10.0 mi Calm Calm - N/A   Clear
12:55 PM 70.9 °F 55.0 °F 57% 30.08 in 10.0 mi SW 5.8 mph - N/A   Clear
1:15 PM 71.1 °F 52.7 °F 52% 30.07 in 10.0 mi WSW 4.6 mph - N/A   Scattered Clouds
1:35 PM 71.6 °F 52.0 °F 50% 30.07 in 10.0 mi South 5.8 mph - N/A   Scattered Clouds
1:55 PM 72.7 °F 50.5 °F 46% 30.06 in 10.0 mi Calm Calm - N/A   Clear
2:15 PM 72.3 °F 50.0 °F 45% 30.06 in 10.0 mi Calm Calm - N/A   Clear
2:35 PM 72.5 °F 51.3 °F 47% 30.05 in 10.0 mi Calm Calm - N/A   Clear
2:55 PM 72.9 °F 50.7 °F 46% 30.04 in 10.0 mi Calm Calm - N/A   Clear
3:15 PM 72.7 °F 51.6 °F 47% 30.04 in 10.0 mi WSW 3.5 mph - N/A   Clear
3:35 PM 73.6 °F 51.8 °F 46% 30.03 in 10.0 mi Calm Calm - N/A   Clear
3:55 PM 73.4 °F 49.5 °F 43% 30.02 in 10.0 mi WSW 3.5 mph - N/A   Clear
4:15 PM 73.9 °F 50.9 °F 44% 30.02 in 10.0 mi SW 6.9 mph - N/A   Clear
4:35 PM 75.6 °F 50.5 °F 41% 30.01 in 10.0 mi SE 5.8 mph - N/A   Clear
4:55 PM 76.1 °F 48.6 °F 38% 30.01 in 10.0 mi South 4.6 mph - N/A   Clear
5:15 PM 76.1 °F 50.7 °F 41% 30.01 in 10.0 mi South 3.5 mph - N/A   Clear
5:35 PM 76.1 °F 51.1 °F 41% 30.00 in 10.0 mi Calm Calm - N/A   Clear
5:55 PM 75.9 °F 52.9 °F 45% 30.00 in 10.0 mi WSW 4.6 mph - N/A   Clear
6:15 PM 75.7 °F 53.1 °F 45% 30.00 in 10.0 mi West 3.5 mph - N/A   Clear
6:35 PM 75.6 °F 53.4 °F 46% 29.99 in 10.0 mi South 4.6 mph - N/A   Clear
6:55 PM 73.4 °F 52.9 °F 49% 29.99 in 10.0 mi South 3.5 mph - N/A   Clear
7:15 PM 72.5 °F 52.7 °F 50% 29.99 in 10.0 mi SSE 4.6 mph - N/A   Clear
7:35 PM 70.9 °F 52.9 °F 53% 29.99 in 10.0 mi SSE 4.6 mph - N/A   Clear
7:55 PM 70.9 °F 55.9 °F 59% 29.99 in 10.0 mi Calm Calm - N/A   Clear
8:15 PM 68.4 °F 56.8 °F 67% 29.99 in 10.0 mi Calm Calm - N/A   Clear
8:35 PM 64.8 °F 56.8 °F 75% 29.99 in 10.0 mi Calm Calm - N/A   Clear
8:55 PM 62.8 °F 58.3 °F 85% 29.99 in 10.0 mi Calm Calm - N/A   Clear
9:15 PM 61.9 °F 58.1 °F 87% 30.00 in 10.0 mi Calm Calm - N/A   Clear
9:35 PM 61.2 °F 58.1 °F 90% 30.00 in 10.0 mi Calm Calm - N/A   Clear
9:55 PM 60.8 °F 61.0 °F 100% 30.01 in 10.0 mi Calm Calm - N/A   Scattered Clouds
10:15 PM 60.8 °F 60.8 °F 100% 30.01 in 10.0 mi Calm Calm - N/A   Clear
10:35 PM 60.8 °F 60.3 °F 98% 30.01 in 10.0 mi Calm Calm - N/A   Clear
10:55 PM 60.8 °F 60.3 °F 98% 30.01 in 10.0 mi Calm Calm - N/A   Scattered Clouds
11:15 PM 60.8 °F 61.0 °F 100% 30.00 in 10.0 mi Calm Calm - N/A   Scattered Clouds
11:35 PM 60.8 °F 61.0 °F 100% 30.00 in 10.0 mi Calm Calm - N/A   Clear
11:55 PM 60.8 °F 61.0 °F 100% 30.00 in 10.0 mi Calm Calm - N/A   Clear